Tracking 34408 objects as of 14-Jun-2026
HD Live streaming from Space Station
objects crossing your sky now

CZ-6A DEB

Track CZ-6A DEB now!
10-day predictions


NORAD ID: 56263
Int'l Code: 2022-151ACF
Perigee: 638.7 km
Apogee: 803.2 km
Inclination: 98.5 °
Period: 99.1 minutes
Semi major axis: 7091 km
RCS: Unknown
Launch date: November 11, 2022
Source: People's Republic of China (PRC)
Launch site: Taiyaun Space Center, China (TSC)

Note: This is SATELLITE DEBRIS
Your satellite tracking list
Your tracking list is empty




NASA's NSSDC Master Catalog

Two Line Element Set (TLE):
1 56263U 22151ACF 26164.61147633  .00001648  00000-0  37250-3 0  9992
2 56263  98.4977 207.0100 0115925 283.0174  75.8100 14.53630522171052
Source of the keplerian elements: AFSPC